Salida, CO

8:19 AM MDT on May 26, 2017 (GMT -0600)
Salida

Weather History for KANK - December, 2012

Change the Weather History Date:

Friday, December 7, 2012

  Actual Average (KGUC) Record (KGUC)
Temperature  
Mean Temperature 40 °F -  
Max Temperature 48 °F 27 °F 44 °F (2008)
Min Temperature 31 °F 3 °F -5 °F (2005)
Degree Days  
Heating Degree Days 26    
Moisture  
Dew Point 18 °F    
Average Humidity 39    
Maximum Humidity 79    
Minimum Humidity 27    
Precipitation  
Precipitation 0.00 in - - ()
Sea Level Pressure  
Sea Level Pressure 29.96 in    
Wind  
Wind Speed 14 mph (SW)    
Max Wind Speed 28 mph    
Max Gust Speed 37 mph    
Visibility 10 miles    
Events      
Averages and records for this station are not official NWS values.
T = Trace of Precipitation, MM = Missing Value Source: NWS Daily Summary

Daily Weather History Graph

Daily Weather History Graph

Search for Another Location

Airport or City:

Trip Planner

Search our weather history database for the weather conditions in past years. The results will help you decide how hot, cold, wet, or windy it might be!

Date:

Astronomy

Dec. 07, 2012 Rise Set
Actual Time 7:08 AM MST 4:42 PM MST
Civil Twilight 6:39 AM MST 5:12 PM MST
Nautical Twilight 6:06 AM MST 5:45 PM MST
Astronomical Twilight 5:34 AM MST 6:17 PM MST
Moon 12:34 AM MST (12/7) 12:37 PM MST (12/7)
Length of Visible Light 10h 33m
Length of Day
9h 34m
Last Quarter, 38% of the Moon is Illuminated
Dec 7
Last Quarter
Dec 13
New
Dec 19
First Quarter
Dec 28
Full
Jan 4
Last Quarter

Hourly Weather History & Observations

Time (MST) Temp. Windchill Dew Point Humidity Pressure Visibility Wind Dir Wind Speed Gust Speed Precip Events Conditions
12:15 AM 31.6 °F - 25.9 °F 79% 29.99 in 10.0 mi Calm Calm - N/A   Clear
12:35 AM 41.5 °F 34.6 °F 21.9 °F 46% 29.98 in 10.0 mi WSW 12.7 mph 23.0 mph N/A   Clear
12:55 AM 40.8 °F 33.3 °F 21.9 °F 47% 29.98 in 10.0 mi WSW 13.8 mph - N/A   Clear
1:15 AM 41.4 °F 34.3 °F 22.3 °F 47% 29.97 in 10.0 mi WSW 12.7 mph 18.4 mph N/A   Clear
1:35 AM 42.4 °F 34.1 °F 20.7 °F 42% 29.98 in 10.0 mi WSW 18.4 mph 28.8 mph N/A   Clear
1:55 AM 42.1 °F 33.3 °F 20.3 °F 42% 29.98 in 10.0 mi WSW 19.6 mph 26.5 mph N/A   Clear
2:15 AM 41.5 °F 33.2 °F 20.1 °F 42% 29.98 in 10.0 mi SW 17.3 mph 24.2 mph N/A   Clear
2:35 AM 41.0 °F 32.2 °F 20.3 °F 44% 29.97 in 10.0 mi SW 18.4 mph 25.3 mph N/A   Clear
2:55 AM 40.8 °F 32.6 °F 19.9 °F 43% 29.97 in 10.0 mi SW 16.1 mph 24.2 mph N/A   Clear
3:15 AM 40.8 °F 32.6 °F 20.3 °F 44% 29.96 in 10.0 mi SW 16.1 mph 28.8 mph N/A   Clear
3:35 AM 40.5 °F 33.2 °F 21.0 °F 46% 29.96 in 10.0 mi WSW 12.7 mph 21.9 mph N/A   Clear
3:55 AM 40.3 °F 31.9 °F 21.2 °F 47% 29.95 in 10.0 mi SW 16.1 mph 23.0 mph N/A   Clear
4:15 AM 40.3 °F 32.6 °F 21.0 °F 46% 29.96 in 10.0 mi WSW 13.8 mph 23.0 mph N/A   Clear
4:35 AM 39.7 °F 32.7 °F 19.9 °F 45% 29.95 in 10.0 mi WSW 11.5 mph 20.7 mph N/A   Clear
5:15 AM 39.7 °F 30.6 °F 19.4 °F 44% 29.95 in 10.0 mi SW 18.4 mph 26.5 mph N/A   Clear
5:35 AM 39.7 °F 33.2 °F 19.4 °F 44% 29.95 in 10.0 mi WSW 10.4 mph 24.2 mph N/A   Clear
5:55 AM 39.6 °F 31.3 °F 19.2 °F 44% 29.94 in 10.0 mi SW 15.0 mph 21.9 mph N/A   Clear
6:15 AM 39.7 °F 31.5 °F 18.7 °F 43% 29.95 in 10.0 mi WSW 15.0 mph 25.3 mph N/A   Clear
6:35 AM 39.7 °F 31.2 °F 18.0 °F 42% 29.95 in 10.0 mi WSW 16.1 mph 23.0 mph N/A   Clear
6:55 AM 39.7 °F 31.9 °F 19.9 °F 45% 29.96 in 10.0 mi WSW 13.8 mph 18.4 mph N/A   Clear
7:15 AM 40.1 °F 33.2 °F 21.2 °F 47% 29.96 in 10.0 mi WSW 11.5 mph 21.9 mph N/A   Scattered Clouds
7:35 AM 40.5 °F 33.6 °F 22.1 °F 48% 29.96 in 10.0 mi WSW 11.5 mph 21.9 mph N/A   Scattered Clouds
7:55 AM 41.0 °F 34.3 °F 20.7 °F 44% 29.95 in 10.0 mi SW 11.5 mph 20.7 mph N/A   Clear
8:15 AM 40.5 °F 38.4 °F 18.7 °F 42% 29.95 in 10.0 mi NNW 3.5 mph 21.9 mph N/A   Clear
8:35 AM 39.9 °F 36.7 °F 19.2 °F 43% 29.96 in 10.0 mi NNE 4.6 mph - N/A   Clear
8:55 AM 40.1 °F - 19.0 °F 43% 29.97 in 10.0 mi Calm Calm - N/A   Clear
9:15 AM 44.1 °F 39.0 °F 18.0 °F 35% 29.97 in 10.0 mi WSW 9.2 mph 24.2 mph N/A   Clear
9:35 AM 45.5 °F 36.9 °F 17.2 °F 32% 29.97 in 10.0 mi WSW 24.2 mph 29.9 mph N/A   Clear
9:55 AM 45.7 °F 38.6 °F 17.4 °F 32% 29.97 in 10.0 mi WSW 17.3 mph 28.8 mph N/A   Clear
10:15 AM 46.4 °F 38.7 °F 17.6 °F 32% 29.97 in 10.0 mi SW 20.7 mph 29.9 mph N/A   Clear
10:35 AM 46.6 °F - 17.4 °F 31% 29.97 in 10.0 mi SW 18.4 mph 26.5 mph N/A   Clear
10:55 AM 47.7 °F - 16.9 °F 29% 29.96 in 10.0 mi SW 16.1 mph 25.3 mph N/A   Clear
11:15 AM 48.4 °F - 17.4 °F 29% 29.95 in 10.0 mi SW 21.9 mph 26.5 mph N/A   Clear
11:35 AM 48.4 °F - 16.3 °F 28% 29.94 in 10.0 mi WSW 19.6 mph 28.8 mph N/A   Clear
11:55 AM 48.4 °F - 15.8 °F 27% 29.94 in 10.0 mi WSW 23.0 mph 33.4 mph N/A   Clear
12:15 PM 48.2 °F - 16.9 °F 29% 29.93 in 10.0 mi WSW 23.0 mph 33.4 mph N/A   Clear
12:35 PM 48.2 °F - 16.9 °F 29% 29.93 in 10.0 mi WSW 23.0 mph 35.7 mph N/A   Clear
12:55 PM 48.4 °F - 16.7 °F 28% 29.93 in 10.0 mi WSW 25.3 mph 32.2 mph N/A   Clear
1:15 PM 47.7 °F - 15.1 °F 27% 29.93 in 10.0 mi West 27.6 mph 36.8 mph N/A   Clear
1:35 PM 48.2 °F - 16.7 °F 29% 29.93 in 10.0 mi WSW 25.3 mph 35.7 mph N/A   Clear
1:55 PM 47.7 °F - 16.5 °F 29% 29.92 in 10.0 mi SW 24.2 mph 36.8 mph N/A   Clear
2:15 PM 47.3 °F - 16.2 °F 29% 29.93 in 10.0 mi WSW 18.4 mph 32.2 mph N/A   Clear
2:35 PM 46.4 °F 38.5 °F 16.2 °F 30% 29.93 in 10.0 mi WSW 21.9 mph 33.4 mph N/A   Clear
2:55 PM 46.6 °F - 16.2 °F 30% 29.93 in 10.0 mi SW 19.6 mph 31.1 mph N/A   Clear
3:15 PM 46.4 °F 38.7 °F 16.2 °F 30% 29.94 in 10.0 mi WSW 20.7 mph 33.4 mph N/A   Clear
3:35 PM 45.7 °F 38.8 °F 16.2 °F 31% 29.94 in 10.0 mi WSW 16.1 mph 32.2 mph N/A   Clear
3:55 PM 45.1 °F 37.6 °F 15.8 °F 31% 29.95 in 10.0 mi WSW 18.4 mph 29.9 mph N/A   Clear
4:15 PM 43.7 °F 35.0 °F 15.3 °F 32% 29.96 in 10.0 mi WSW 21.9 mph 28.8 mph N/A   Clear
4:35 PM 43.5 °F 35.0 °F 14.7 °F 31% 29.96 in 3.0 mi SW 20.7 mph 35.7 mph N/A   Clear
4:55 PM 43.0 °F 35.1 °F 14.5 °F 32% 29.97 in 10.0 mi WSW 17.3 mph 27.6 mph N/A   Clear
5:15 PM 41.9 °F 33.1 °F 14.9 °F 34% 29.97 in 10.0 mi WSW 19.6 mph 25.3 mph N/A   Clear
5:35 PM 41.2 °F 32.4 °F 15.8 °F 36% 29.97 in 10.0 mi WSW 18.4 mph 21.9 mph N/A   Clear
6:15 PM 40.3 °F 32.6 °F 16.2 °F 38% 29.98 in 10.0 mi WSW 13.8 mph 21.9 mph N/A   Clear
6:35 PM 39.9 °F 31.8 °F 15.8 °F 38% 29.98 in 10.0 mi West 15.0 mph 23.0 mph N/A   Clear
6:55 PM 40.1 °F 32.4 °F 15.6 °F 37% 29.98 in 10.0 mi WSW 13.8 mph 18.4 mph N/A   Clear
7:35 PM 38.7 °F 30.1 °F 15.8 °F 39% 29.98 in 10.0 mi SW 15.0 mph 25.3 mph N/A   Clear
7:55 PM 39.6 °F 29.7 °F 15.8 °F 38% 29.98 in 10.0 mi SW 20.7 mph 34.5 mph N/A   Clear
8:15 PM 39.7 °F 31.5 °F 16.5 °F 39% 29.99 in 10.0 mi SW 15.0 mph 26.5 mph N/A   Clear
8:35 PM 39.7 °F 30.9 °F 17.2 °F 40% 29.98 in 10.0 mi SW 17.3 mph 25.3 mph N/A   Clear
8:55 PM 39.2 °F 30.5 °F 17.6 °F 42% 29.99 in 10.0 mi WSW 16.1 mph 24.2 mph N/A   Clear
9:15 PM 39.0 °F 31.8 °F 16.7 °F 40% 29.99 in 10.0 mi SW 11.5 mph - N/A   Clear
9:35 PM 37.9 °F 30.9 °F 17.2 °F 43% 29.99 in 10.0 mi SW 10.4 mph - N/A   Clear
9:55 PM 38.8 °F 32.6 °F 17.6 °F 42% 29.98 in 10.0 mi SSW 9.2 mph 24.2 mph N/A   Scattered Clouds
10:15 PM 39.0 °F 32.8 °F 19.2 °F 45% 29.98 in 10.0 mi WSW 9.2 mph 16.1 mph N/A   Scattered Clouds
10:35 PM 38.7 °F 30.5 °F 19.2 °F 46% 29.98 in 10.0 mi SSW 13.8 mph - N/A   Mostly Cloudy
10:55 PM 38.8 °F 31.2 °F 19.2 °F 45% 29.97 in 10.0 mi SSW 12.7 mph 17.3 mph N/A   Scattered Clouds
11:15 PM 37.6 °F 31.0 °F 18.9 °F 47% 29.98 in 10.0 mi South 9.2 mph - N/A   Clear
11:35 PM 32.4 °F 24.6 °F 18.9 °F 58% 29.97 in 10.0 mi SSW 9.2 mph 16.1 mph N/A   Clear
11:55 PM 31.8 °F 24.6 °F 18.9 °F 59% 29.97 in 10.0 mi SSE 8.1 mph 19.6 mph N/A   Scattered Clouds